STARLINK-3760 (52298 NORAD) Tracking and Keplerian Element Data
This shows tracking and keplerian element data for the satellite.
Feedback or suggestion? Click here.
Element | Value |
Catalog | 52298 |
Name | STARLINK-3760 |
Epoch Orbit | 130 |
Epoch Day | 167.08334491 |
Epoch Year | 2022 |
RAAN | 101.4864 |
Inclination | 53.2172 |
Eccentricity | 0.0001245 |
Argument of Perigee | 70.4317 |
Mean Anonmoly | 205.5816 |
Mean Motion | 15.54978984 |
Decay Rate | -0.00712746 |
L1 | 1 52298U 22041AP 22167.08334491 -.00712746 00000+0 -11418-1 0 9999 |
L2 | 2 52298 53.2172 101.4864 0001245 70.4317 205.5816 15.54978984 1307 |
Live tracking and technical data element details for STARLINK-3760 (NORAD 52298). STARLINK-3760 can be tracked NOW for your location showing map with azimuth and elevation plus other details from your city location.
Track the satellite on the map from your city or location and see movement details for azimuth, elevation, latitude, longitude, range, height, and movement on the map or in text.
IsCatalogInMostPopularTable: catalog: 52298, numindb: 2
Update: records affected: 1
GetName: 52298 STARLINK-3760
Hit Count: updated at: Sat, 25 Jun 2022 05:15:42 GMT